Weather History for Kendall, FL

Change the Weather History Date:

Monday, November 14, 2011

  Actual Average Record
Temperature  
Mean Temperature 76 °F -  
Max Temperature 82 °F 82 °F 87 °F (1992)
Min Temperature 69 °F 66 °F 56 °F (1991)
Cooling Degree Days 10    
Growing Degree Days 26 (Base 50)    
Moisture  
Dew Point 70 °F    
Average Humidity 80    
Maximum Humidity 94    
Minimum Humidity 67    
Precipitation  
Precipitation 0.00 in - - ()
Sea Level Pressure  
Sea Level Pressure 30.08 in    
Wind  
Wind Speed 8 mph (East)    
Max Wind Speed 18 mph    
Max Gust Speed 25 mph    
Visibility 10 miles    
Events Rain    
Averages and records for this station are not official NWS values.
T = Trace of Precipitation, MM = Missing Value Source: NWS Daily Summary

Daily Weather History Graph

Daily Weather History Graph

Search for Another Location

Airport:

Trip Planner

Search our weather history database for the weather conditions in past years. The results will help you decide how hot, cold, wet, or windy it might be!

Date:

Astronomy

Nov. 14, 2011 Rise Set
Actual Time 6:38 AM EST 5:33 PM EST
Civil Twilight 6:14 AM EST 5:57 PM EST
Nautical Twilight 5:46 AM EST 6:25 PM EST
Astronomical Twilight 5:19 AM EST 6:52 PM EST
Moon 8:45 PM EST (11/14) 9:48 AM EST (11/14)
Length of Visible Light 11h 43m
Length of Day
10h 55m
Waning Gibbous, 87% of the Moon is Illuminated
Nov 14
Waning Gibbous
Nov 18
Last Quarter
Nov 25
New
Dec 2
First Quarter
Dec 10
Full

Hourly Weather History & Observations

Time (EST) Temp. Heat Index Dew Point Humidity Pressure Visibility Wind Dir Wind Speed Gust Speed Precip Events Conditions
12:53 AM 69.1 °F - 64.9 °F 87% 30.12 in 10.0 mi NNE 3.5 mph - N/A   Partly Cloudy
1:53 AM 72.0 °F - 66.9 °F 84% 30.10 in 10.0 mi North 4.6 mph - N/A   Overcast
2:53 AM 72.0 °F - 66.9 °F 84% 30.09 in 10.0 mi NNE 5.8 mph - N/A   Overcast
3:53 AM 72.0 °F - 68.0 °F 87% 30.09 in 10.0 mi North 3.5 mph - N/A   Overcast
4:53 AM 71.1 °F - 66.9 °F 87% 30.09 in 10.0 mi NNE 3.5 mph - N/A   Mostly Cloudy
5:53 AM 69.1 °F - 66.9 °F 93% 30.10 in 10.0 mi North 3.5 mph - N/A   Scattered Clouds
6:53 AM 71.1 °F - 68.0 °F 90% 30.11 in 10.0 mi North 3.5 mph - N/A   Partly Cloudy
7:53 AM 73.9 °F - 70.0 °F 87% 30.12 in 10.0 mi Calm Calm - N/A   Mostly Cloudy
8:53 AM 80.1 °F 83.8 °F 72.0 °F 76% 30.12 in 10.0 mi East 12.7 mph - N/A   Mostly Cloudy
9:34 AM 80.6 °F 84.6 °F 71.6 °F 74% 30.13 in 8.0 mi East 16.1 mph - N/A   Mostly Cloudy
9:53 AM 81.0 °F 84.9 °F 71.1 °F 72% 30.13 in 10.0 mi East 16.1 mph - N/A   Mostly Cloudy
10:53 AM 81.0 °F 84.9 °F 71.1 °F 72% 30.12 in 10.0 mi East 15.0 mph - 0.00 in Rain Light Rain
11:18 AM 80.6 °F 84.6 °F 71.6 °F 74% 30.12 in 10.0 mi East 15.0 mph 25.3 mph 0.00 in   Overcast
11:53 AM 82.9 °F 87.5 °F 71.1 °F 67% 30.11 in 10.0 mi East 17.3 mph - 0.00 in   Mostly Cloudy
12:31 PM 82.4 °F 87.2 °F 71.6 °F 70% 30.08 in 10.0 mi East 13.8 mph - N/A   Mostly Cloudy
12:44 PM 82.4 °F 87.2 °F 71.6 °F 70% 30.08 in 10.0 mi East 17.3 mph - N/A   Mostly Cloudy
12:53 PM 82.0 °F 86.3 °F 71.1 °F 69% 30.07 in 10.0 mi East 18.4 mph - N/A   Mostly Cloudy
1:53 PM 82.9 °F 88.0 °F 72.0 °F 69% 30.04 in 10.0 mi East 17.3 mph 20.7 mph N/A   Mostly Cloudy
2:53 PM 81.0 °F 85.2 °F 72.0 °F 74% 30.03 in 10.0 mi East 17.3 mph - N/A   Mostly Cloudy
3:53 PM 80.1 °F 83.6 °F 71.1 °F 74% 30.02 in 10.0 mi East 16.1 mph - N/A   Scattered Clouds
4:53 PM 79.0 °F - 72.0 °F 79% 30.03 in 10.0 mi East 13.8 mph - N/A   Mostly Cloudy
5:51 PM 77.0 °F - 71.6 °F 83% 30.03 in 10.0 mi East 10.4 mph - 0.00 in   Scattered Clouds
5:53 PM 77.0 °F - 72.0 °F 84% 30.03 in 10.0 mi East 11.5 mph - 0.00 in   Partly Cloudy
6:53 PM 75.9 °F - 73.0 °F 91% 30.05 in 10.0 mi East 9.2 mph - N/A   Clear
7:53 PM 75.2 °F - 73.4 °F 94% 30.05 in 10.0 mi East 6.9 mph - N/A   Scattered Clouds
8:53 PM 75.0 °F - 73.0 °F 94% 30.06 in 10.0 mi East 8.1 mph - N/A   Clear
9:53 PM - - - N/A% 30.06 in 10.0 mi East 6.9 mph - N/A   Mostly Cloudy
10:16 PM - - - N/A% 30.06 in 10.0 mi East 6.9 mph - N/A   Mostly Cloudy
10:27 PM - - - N/A% 30.06 in 10.0 mi East 6.9 mph - N/A   Scattered Clouds
10:53 PM - - - N/A% 30.06 in 10.0 mi East 6.9 mph - N/A   Clear
11:30 PM - - - N/A% 30.05 in 10.0 mi ESE 6.9 mph - N/A   Mostly Cloudy
11:53 PM - - - N/A% 30.06 in 10.0 mi ESE 6.9 mph - N/A   Mostly Cloudy